QPF
0.00 0.00 0.00 0.00 0.00 0.00 0.00 0.01 0.00 0.00 0.00 0.00 0.00 0.00 0.00 0.00 0.00 0.00 0.00 0.00 0.00 0.00 0.00 0.00 0.00 0.00 0.00 0.00 0.00 0.00 0.00 0.00 0.00 0.00 0.00 0.00 0.00 0.00 0.00 0.00 0.00 0.00 0.00 0.00
0.00 0.00 0.00 0.00 0.00 0.00 0.00 0.00 0.00 0.00 0.00 0.00 0.00 0.00 0.00 0.00 0.00 0.00 0.00 0.00 0.00 0.00 0.00 0.00 0.00 0.00 0.00 0.00 0.00 0.00 0.00 0.00 0.00 0.00 0.00 0.00 0.00 0.00 0.00 0.00 0.00 0.00 0.00 0.00
0.00 0.00 0.00 0.00 0.00 0.00 0.00 0.00 0.00 0.00 0.00 0.00 0.00 0.00 0.00 0.00 0.00 0.00 0.00 0.00 0.00 0.00 0.00 0.00 0.00 0.00 0.00 0.00 0.00 0.00 0.00 0.00 0.00 0.00 0.00 0.00 0.00 0.00 0.00 0.00 0.00 0.00 0.00 0.00
0.00 0.00 0.00 0.00 0.00 0.00 0.00 0.00 0.00 0.00 0.00 0.00 0.00 0.00 0.00 0.00 0.00 0.00 0.00 0.00 0.00 0.00 0.00 0.00 0.00 0.00 0.00 0.00 0.00 0.00 0.00 0.00 0.00 0.00 0.00 0.00 0.00 0.00 0.00 0.00 0.00 0.00 0.00 0.00
0.00 0.01 0.00 0.00 0.00 0.00 0.00 0.00 0.00 0.00 0.00 0.00 0.00 0.00 0.00 0.00 0.00 0.00 0.00 0.00 0.00 0.00 0.00 0.00 0.00 0.00 0.00 0.00 0.00 0.00 0.00 0.00 0.00 0.00 0.00 0.00 0.00 0.00 0.00 0.00 0.00 0.00 0.00 0.00
0.00 0.01 0.00 0.00 0.00 0.00 0.00 0.00 0.00 0.00 0.00 0.00 0.00 0.00 0.00 0.00 0.00 0.00 0.00 0.00 0.00 0.00 0.00 0.00 0.00 0.00 0.00 0.00 0.00 0.00 0.00 0.00 0.00 0.00 0.00 0.00 0.00 0.00 0.00 0.00 0.00 0.00 0.00 0.00
0.00 0.01 0.00 0.00 0.00 0.00 0.00 0.00 0.00 0.00 0.00 0.00 0.00 0.00 0.00 0.00 0.00 0.00 0.00 0.00 0.00 0.00 0.00 0.00 0.00 0.00 0.00 0.00 0.00 0.00 0.00 0.00 0.00 0.00 0.00 0.00 0.00 0.00 0.00 0.00 0.00 0.00 0.00 0.00
0.00 0.00 0.00 0.00 0.00 0.00 0.00 0.00 0.00 0.00 0.00 0.00 0.00 0.00 0.00 0.00 0.00 0.00 0.00 0.00 0.00 0.00 0.00 0.00 0.00 0.00 0.00 0.00 0.00 0.00 0.00 0.00 0.00 0.00 0.00 0.00 0.00 0.00 0.00 0.00 0.00 0.00 0.00 0.00
0.00 0.00 0.00 0.00 0.00 0.00 0.00 0.00 0.00 0.00 0.00 0.00 0.00 0.00 0.00 0.00 0.00 0.00 0.00 0.00 0.00 0.00 0.00 0.00 0.00 0.00 0.00 0.00 0.00 0.00 0.00 0.00 0.00 0.00 0.00 0.00 0.00 0.00 0.00 0.00 0.00 0.00 0.00 0.00
0.00 0.00 0.00 0.00 0.00 0.00 0.00 0.00 0.00 0.00 0.00 0.00 0.00 0.00 0.00 0.00 0.00 0.00 0.00 0.00 0.00 0.00 0.00 0.00 0.00 0.00 0.00 0.00 0.00 0.00 0.00 0.00 0.00 0.00 0.00 0.00 0.00 0.00 0.00 0.00 0.00 0.00 0.00 0.01
0.00 0.00 0.00 0.00 0.00 0.00 0.00 0.00 0.00 0.00 0.00 0.00 0.00 0.00 0.00 0.00 0.00 0.00 0.00 0.00 0.00 0.00 0.00 0.00 0.00 0.00 0.00 0.00 0.00 0.00 0.00 0.00 0.00 0.00 0.00 0.00 0.00 0.00 0.00 0.00 0.00 0.00 0.00 0.00
0.00 0.00 0.00 0.00 0.00 0.00 0.00 0.00 0.00 0.00 0.00 0.00 0.00 0.00 0.00 0.00 0.00 0.00 0.00 0.00 0.00 0.00 0.00 0.00 0.00 0.00 0.00 0.00 0.00 0.00 0.00 0.00 0.00 0.00 0.00 0.00 0.00 0.00 0.00 0.00 0.00 0.00 0.00 0.00
0.00 0.00 0.00 0.00 0.00 0.00 0.00 0.00 0.00 0.00 0.00 0.00 0.00 0.00 0.00 0.00 0.00 0.00 0.00 0.00 0.00 0.00 0.00 0.00 0.00 0.00 0.00 0.00 0.00 0.00 0.00 0.00 0.00 0.00 0.00 0.00 0.01 0.01 0.01 0.01 0.00 0.00 0.00 0.00
0.00 0.00 0.00 0.00 0.00 0.00 0.00 0.00 0.00 0.00 0.00 0.00 0.00 0.00 0.00 0.00 0.00 0.00 0.00 0.00 0.00 0.00 0.00 0.00 0.00 0.00 0.00 0.00 0.00 0.00 0.00 0.00 0.00 0.00 0.01 0.01 0.01 0.01 0.01 0.01 0.01 0.00 0.00 0.00
0.00 0.00 0.00 0.00 0.00 0.00 0.00 0.00 0.00 0.00 0.00 0.00 0.00 0.00 0.00 0.00 0.00 0.00 0.00 0.00 0.00 0.00 0.00 0.00 0.00 0.00 0.00 0.00 0.00 0.00 0.00 0.00 0.00 0.00 0.00 0.01 0.01 0.00 0.01 0.01 0.01 0.00 0.00 0.00
0.00 0.00 0.00 0.00 0.00 0.00 0.00 0.00 0.00 0.00 0.00 0.00 0.00 0.00 0.00 0.00 0.00 0.00 0.00 0.00 0.00 0.00 0.00 0.00 0.00 0.00 0.00 0.00 0.00 0.00 0.00 0.00 0.00 0.00 0.00 0.00 0.01 0.00 0.00 0.01 0.01 0.00 0.00 0.01
0.00 0.00 0.00 0.00 0.00 0.00 0.00 0.00 0.00 0.00 0.00 0.00 0.00 0.00 0.00 0.00 0.00 0.00 0.00 0.00 0.00 0.00 0.00 0.00 0.00 0.00 0.00 0.00 0.00 0.00 0.00 0.00 0.00 0.00 0.00 0.00 0.01 0.01 0.01 0.01 0.01 0.01 0.00 0.01
0.00 0.00 0.00 0.00 0.00 0.00 0.00 0.00 0.00 0.00 0.00 0.00 0.00 0.00 0.00 0.00 0.00 0.00 0.00 0.00 0.00 0.00 0.00 0.00 0.00 0.00 0.00 0.00 0.00 0.00 0.00 0.00 0.00 0.00 0.00 0.00 0.01 0.01 0.01 0.01 0.01 0.01 0.00 0.01
0.00 0.00 0.00 0.00 0.00 0.00 0.00 0.00 0.00 0.00 0.00 0.00 0.00 0.00 0.00 0.00 0.00 0.00 0.00 0.00 0.00 0.00 0.00 0.00 0.00 0.00 0.00 0.00 0.00 0.00 0.00 0.00 0.00 0.00 0.00 0.00 0.01 0.01 0.01 0.01 0.01 0.01 0.01 0.01
0.00 0.00 0.00 0.00 0.00 0.00 0.00 0.00 0.00 0.00 0.00 0.00 0.00 0.00 0.00 0.00 0.00 0.00 0.00 0.00 0.00 0.00 0.00 0.00 0.00 0.00 0.00 0.00 0.00 0.00 0.00 0.00 0.00 0.00 0.00 0.00 0.01 0.01 0.01 0.01 0.01 0.01 0.01 0.01
0.00 0.00 0.00 0.00 0.00 0.00 0.00 0.00 0.00 0.00 0.00 0.00 0.00 0.00 0.00 0.00 0.00 0.00 0.00 0.00 0.00 0.00 0.00 0.00 0.00 0.00 0.00 0.00 0.00 0.00 0.00 0.00 0.01 0.01 0.01 0.01 0.01 0.01 0.01 0.01 0.01 0.01 0.02 0.02
0.00 0.00 0.00 0.00 0.00 0.00 0.00 0.00 0.00 0.00 0.00 0.00 0.00 0.00 0.00 0.00 0.00 0.00 0.00 0.00 0.00 0.00 0.00 0.00 0.00 0.00 0.00 0.01 0.01 0.00 0.01 0.01 0.01 0.01 0.01 0.01 0.01 0.01 0.01 0.01 0.02 0.02 0.02 0.02
0.00 0.00 0.00 0.00 0.00 0.00 0.00 0.00 0.00 0.00 0.00 0.00 0.00 0.00 0.00 0.00 0.00 0.00 0.00 0.00 0.00 0.00 0.00 0.00 0.00 0.00 0.01 0.01 0.00 0.00 0.01 0.01 0.01 0.01 0.01 0.02 0.02 0.01 0.02 0.02 0.02 0.02 0.02 0.02
0.00 0.00 0.00 0.00 0.00 0.00 0.00 0.00 0.00 0.00 0.00 0.00 0.00 0.00 0.00 0.00 0.00 0.00 0.00 0.00 0.00 0.00 0.00 0.00 0.00 0.01 0.01 0.00 0.00 0.00 0.01 0.01 0.01 0.01 0.01 0.02 0.01 0.02 0.02 0.02 0.02 0.02 0.02 0.02
0.00 0.00 0.00 0.00 0.00 0.00 0.00 0.00 0.00 0.00 0.00 0.00 0.00 0.00 0.00 0.00 0.00 0.00 0.00 0.00 0.00 0.00 0.00 0.00 0.00 0.00 0.00 0.00 0.01 0.01 0.01 0.01 0.01 0.02 0.02 0.02 0.02 0.03 0.02 0.02 0.02 0.03 0.03 0.03
0.00 0.00 0.00 0.00 0.00 0.00 0.00 0.00 0.00 0.00 0.00 0.00 0.00 0.00 0.00 0.00 0.00 0.00 0.00 0.00 0.00 0.00 0.00 0.00 0.00 0.01 0.01 0.01 0.01 0.01 0.01 0.02 0.02 0.02 0.03 0.03 0.03 0.03 0.03 0.03 0.03 0.03 0.04 0.03
0.00 0.00 0.00 0.00 0.00 0.00 0.00 0.00 0.01 0.00 0.00 0.01 0.01 0.00 0.00 0.00 0.00 0.00 0.00 0.01 0.00 0.00 0.01 0.01 0.01 0.01 0.01 0.01 0.01 0.02 0.02 0.03 0.03 0.02 0.03 0.03 0.04 0.04 0.04 0.04 0.04 0.04 0.04 0.04
MSLP
1009.01 1009.03 1008.99 1008.93 1008.90 1008.91 1009.02 1009.22 1009.53 1009.93 1010.39 1010.88 1011.39 1011.89 1012.37 1012.82 1013.24 1013.64 1014.02 1014.37 1014.69 1014.98 1015.22 1015.41 1015.54 1015.62 1015.65 1015.64 1015.61 1015.57 1015.53 1015.49 1015.45 1015.39 1015.29 1015.15 1014.94 1014.67 1014.34 1013.96 1013.55 1013.14 1012.76 1012.41
1009.11 1009.09 1008.97 1008.79 1008.61 1008.47 1008.41 1008.48 1008.68 1009.01 1009.45 1009.97 1010.54 1011.12 1011.69 1012.23 1012.72 1013.18 1013.59 1013.97 1014.32 1014.63 1014.92 1015.17 1015.38 1015.56 1015.70 1015.80 1015.87 1015.92 1015.94 1015.95 1015.93 1015.88 1015.79 1015.65 1015.45 1015.19 1014.86 1014.49 1014.08 1013.66 1013.24 1012.85
1009.22 1009.16 1008.98 1008.71 1008.40 1008.12 1007.92 1007.85 1007.95 1008.20 1008.60 1009.11 1009.71 1010.35 1010.99 1011.59 1012.16 1012.66 1013.12 1013.53 1013.91 1014.25 1014.58 1014.88 1015.16 1015.41 1015.63 1015.82 1015.97 1016.08 1016.16 1016.20 1016.20 1016.17 1016.10 1015.97 1015.79 1015.56 1015.27 1014.93 1014.55 1014.15 1013.73 1013.32
1009.24 1009.17 1008.94 1008.59 1008.19 1007.79 1007.47 1007.29 1007.27 1007.45 1007.79 1008.30 1008.92 1009.60 1010.29 1010.97 1011.60 1012.17 1012.68 1013.14 1013.54 1013.91 1014.27 1014.60 1014.92 1015.22 1015.48 1015.72 1015.91 1016.06 1016.16 1016.22 1016.24 1016.22 1016.16 1016.06 1015.91 1015.72 1015.49 1015.21 1014.88 1014.52 1014.14 1013.74
1009.10 1009.01 1008.74 1008.34 1007.87 1007.39 1006.98 1006.70 1006.60 1006.71 1007.02 1007.51 1008.15 1008.88 1009.64 1010.40 1011.11 1011.76 1012.33 1012.83 1013.28 1013.68 1014.04 1014.39 1014.72 1015.02 1015.30 1015.54 1015.74 1015.90 1016.00 1016.07 1016.09 1016.07 1016.02 1015.94 1015.83 1015.68 1015.50 1015.28 1015.02 1014.72 1014.39 1014.03
1008.74 1008.62 1008.33 1007.90 1007.38 1006.84 1006.38 1006.04 1005.89 1005.96 1006.25 1006.75 1007.42 1008.21 1009.05 1009.89 1010.70 1011.43 1012.08 1012.64 1013.12 1013.55 1013.92 1014.26 1014.57 1014.85 1015.11 1015.33 1015.51 1015.65 1015.74 1015.79 1015.81 1015.79 1015.74 1015.67 1015.58 1015.47 1015.34 1015.17 1014.97 1014.73 1014.46 1014.15
1008.16 1008.00 1007.68 1007.23 1006.70 1006.15 1005.66 1005.30 1005.14 1005.20 1005.50 1006.03 1006.75 1007.60 1008.53 1009.47 1010.37 1011.20 1011.92 1012.54 1013.06 1013.50 1013.87 1014.19 1014.47 1014.72 1014.93 1015.12 1015.27 1015.38 1015.45 1015.48 1015.48 1015.46 1015.40 1015.34 1015.25 1015.16 1015.04 1014.91 1014.75 1014.55 1014.32 1014.05
1007.40 1007.19 1006.85 1006.40 1005.88 1005.34 1004.87 1004.54 1004.40 1004.48 1004.82 1005.40 1006.17 1007.10 1008.10 1009.13 1010.11 1011.02 1011.82 1012.48 1013.03 1013.48 1013.84 1014.13 1014.38 1014.58 1014.76 1014.91 1015.03 1015.12 1015.17 1015.20 1015.18 1015.15 1015.08 1015.01 1014.91 1014.81 1014.69 1014.55 1014.40 1014.22 1014.01 1013.77
1006.52 1006.28 1005.93 1005.49 1005.00 1004.52 1004.10 1003.83 1003.74 1003.88 1004.27 1004.89 1005.72 1006.70 1007.77 1008.86 1009.91 1010.87 1011.71 1012.41 1012.97 1013.42 1013.76 1014.03 1014.24 1014.41 1014.57 1014.69 1014.80 1014.88 1014.93 1014.95 1014.94 1014.89 1014.82 1014.72 1014.59 1014.46 1014.30 1014.14 1013.96 1013.76 1013.54 1013.32
1005.63 1005.35 1005.01 1004.60 1004.18 1003.77 1003.44 1003.24 1003.23 1003.44 1003.88 1004.55 1005.42 1006.43 1007.53 1008.64 1009.72 1010.70 1011.55 1012.26 1012.82 1013.25 1013.58 1013.83 1014.02 1014.17 1014.31 1014.44 1014.55 1014.64 1014.71 1014.74 1014.73 1014.68 1014.59 1014.47 1014.31 1014.12 1013.91 1013.69 1013.46 1013.22 1012.98 1012.73
1004.78 1004.48 1004.16 1003.83 1003.48 1003.18 1002.96 1002.86 1002.93 1003.20 1003.69 1004.38 1005.26 1006.27 1007.35 1008.45 1009.50 1010.46 1011.30 1011.99 1012.53 1012.94 1013.25 1013.49 1013.67 1013.83 1013.97 1014.11 1014.25 1014.37 1014.46 1014.52 1014.53 1014.48 1014.38 1014.22 1014.01 1013.77 1013.50 1013.22 1012.92 1012.63 1012.34 1012.06
1003.99 1003.72 1003.45 1003.20 1002.96 1002.78 1002.66 1002.67 1002.82 1003.15 1003.66 1004.35 1005.21 1006.17 1007.20 1008.24 1009.24 1010.15 1010.93 1011.58 1012.09 1012.48 1012.78 1013.01 1013.20 1013.37 1013.54 1013.71 1013.87 1014.02 1014.15 1014.23 1014.25 1014.21 1014.09 1013.90 1013.66 1013.36 1013.04 1012.69 1012.34 1011.99 1011.65 1011.33
1003.28 1003.04 1002.85 1002.70 1002.59 1002.52 1002.53 1002.62 1002.84 1003.21 1003.73 1004.39 1005.19 1006.09 1007.04 1007.99 1008.90 1009.73 1010.46 1011.05 1011.53 1011.90 1012.19 1012.43 1012.63 1012.82 1013.02 1013.21 1013.41 1013.59 1013.73 1013.83 1013.86 1013.81 1013.68 1013.47 1013.19 1012.86 1012.49 1012.10 1011.70 1011.31 1010.93 1010.58
1002.60 1002.44 1002.34 1002.30 1002.30 1002.35 1002.46 1002.63 1002.91 1003.29 1003.79 1004.42 1005.15 1005.96 1006.81 1007.66 1008.48 1009.23 1009.89 1010.44 1010.89 1011.25 1011.54 1011.78 1012.01 1012.22 1012.44 1012.66 1012.87 1013.06 1013.22 1013.31 1013.33 1013.27 1013.12 1012.89 1012.59 1012.23 1011.84 1011.43 1011.01 1010.61 1010.22 1009.84
1001.95 1001.87 1001.87 1001.93 1002.04 1002.18 1002.37 1002.61 1002.91 1003.30 1003.78 1004.35 1005.00 1005.72 1006.47 1007.23 1007.97 1008.65 1009.25 1009.77 1010.20 1010.57 1010.87 1011.14 1011.38 1011.62 1011.85 1012.08 1012.29 1012.47 1012.61 1012.68 1012.68 1012.59 1012.42 1012.17 1011.86 1011.49 1011.10 1010.70 1010.29 1009.89 1009.50 1009.12
1001.32 1001.33 1001.42 1001.57 1001.75 1001.96 1002.20 1002.47 1002.79 1003.16 1003.61 1004.12 1004.71 1005.35 1006.02 1006.70 1007.37 1008.00 1008.57 1009.08 1009.51 1009.89 1010.22 1010.51 1010.78 1011.04 1011.28 1011.51 1011.70 1011.86 1011.96 1011.99 1011.95 1011.83 1011.63 1011.36 1011.04 1010.68 1010.31 1009.93 1009.55 1009.18 1008.82 1008.45
1000.75 1000.83 1000.98 1001.19 1001.41 1001.66 1001.92 1002.20 1002.51 1002.86 1003.27 1003.73 1004.26 1004.84 1005.45 1006.08 1006.71 1007.30 1007.86 1008.38 1008.83 1009.24 1009.60 1009.93 1010.23 1010.50 1010.75 1010.96 1011.14 1011.26 1011.31 1011.29 1011.20 1011.03 1010.80 1010.52 1010.20 1009.85 1009.51 1009.16 1008.83 1008.49 1008.16 1007.83
1000.31 1000.43 1000.61 1000.83 1001.06 1001.30 1001.55 1001.81 1002.10 1002.42 1002.79 1003.21 1003.69 1004.22 1004.79 1005.39 1005.99 1006.58 1007.14 1007.67 1008.16 1008.60 1009.00 1009.37 1009.70 1009.99 1010.25 1010.45 1010.60 1010.68 1010.69 1010.62 1010.48 1010.27 1010.01 1009.70 1009.38 1009.04 1008.72 1008.42 1008.12 1007.84 1007.55 1007.23
1000.07 1000.18 1000.34 1000.53 1000.73 1000.93 1001.15 1001.37 1001.62 1001.90 1002.23 1002.62 1003.07 1003.57 1004.11 1004.68 1005.26 1005.85 1006.42 1006.96 1007.48 1007.96 1008.40 1008.80 1009.17 1009.48 1009.75 1009.96 1010.09 1010.15 1010.12 1010.01 1009.82 1009.57 1009.27 1008.95 1008.62 1008.29 1007.99 1007.71 1007.46 1007.20 1006.95 1006.66
1000.05 1000.12 1000.22 1000.34 1000.48 1000.62 1000.78 1000.95 1001.16 1001.40 1001.70 1002.05 1002.47 1002.93 1003.45 1003.99 1004.56 1005.13 1005.70 1006.25 1006.78 1007.28 1007.76 1008.20 1008.59 1008.94 1009.23 1009.44 1009.58 1009.62 1009.57 1009.43 1009.21 1008.93 1008.61 1008.26 1007.92 1007.59 1007.30 1007.03 1006.80 1006.57 1006.33 1006.07
1000.25 1000.24 1000.26 1000.30 1000.35 1000.42 1000.51 1000.63 1000.79 1001.00 1001.27 1001.59 1001.97 1002.41 1002.89 1003.40 1003.92 1004.47 1005.01 1005.55 1006.08 1006.59 1007.08 1007.54 1007.96 1008.34 1008.65 1008.88 1009.02 1009.07 1009.02 1008.86 1008.63 1008.33 1007.98 1007.61 1007.25 1006.92 1006.62 1006.36 1006.12 1005.91 1005.68 1005.43
1000.61 1000.51 1000.44 1000.39 1000.36 1000.36 1000.39 1000.46 1000.59 1000.76 1001.00 1001.29 1001.64 1002.04 1002.47 1002.93 1003.40 1003.89 1004.39 1004.89 1005.39 1005.88 1006.36 1006.83 1007.27 1007.66 1008.00 1008.25 1008.41 1008.47 1008.42 1008.27 1008.03 1007.71 1007.34 1006.96 1006.58 1006.23 1005.91 1005.65 1005.41 1005.20 1004.97 1004.72
1001.06 1000.87 1000.71 1000.58 1000.48 1000.42 1000.41 1000.45 1000.55 1000.71 1000.92 1001.19 1001.50 1001.85 1002.23 1002.62 1003.03 1003.45 1003.87 1004.30 1004.75 1005.20 1005.66 1006.11 1006.54 1006.94 1007.29 1007.56 1007.74 1007.81 1007.77 1007.62 1007.37 1007.04 1006.66 1006.26 1005.86 1005.49 1005.16 1004.88 1004.64 1004.42 1004.20 1003.95
1001.52 1001.26 1001.03 1000.83 1000.69 1000.59 1000.56 1000.58 1000.67 1000.82 1001.02 1001.27 1001.55 1001.85 1002.16 1002.49 1002.82 1003.15 1003.49 1003.84 1004.21 1004.60 1005.01 1005.42 1005.83 1006.21 1006.55 1006.82 1007.00 1007.08 1007.04 1006.89 1006.63 1006.29 1005.90 1005.48 1005.07 1004.68 1004.34 1004.05 1003.81 1003.59 1003.38 1003.14
1001.92 1001.61 1001.33 1001.11 1000.94 1000.83 1000.79 1000.82 1000.91 1001.06 1001.26 1001.49 1001.74 1002.00 1002.26 1002.51 1002.76 1003.00 1003.25 1003.51 1003.80 1004.11 1004.45 1004.80 1005.16 1005.51 1005.82 1006.07 1006.23 1006.29 1006.24 1006.08 1005.82 1005.47 1005.07 1004.64 1004.22 1003.82 1003.48 1003.19 1002.96 1002.75 1002.55 1002.33
1002.23 1001.91 1001.61 1001.38 1001.20 1001.10 1001.07 1001.11 1001.22 1001.38 1001.57 1001.79 1002.02 1002.24 1002.45 1002.64 1002.82 1002.98 1003.14 1003.32 1003.52 1003.74 1004.00 1004.28 1004.58 1004.87 1005.12 1005.33 1005.45 1005.48 1005.41 1005.22 1004.94 1004.59 1004.18 1003.75 1003.33 1002.95 1002.61 1002.34 1002.13 1001.95 1001.78 1001.58
1002.49 1002.16 1001.88 1001.64 1001.47 1001.38 1001.36 1001.42 1001.53 1001.70 1001.90 1002.11 1002.32 1002.51 1002.68 1002.82 1002.93 1003.03 1003.12 1003.22 1003.33 1003.48 1003.65 1003.85 1004.07 1004.28 1004.47 1004.61 1004.68 1004.67 1004.55 1004.34 1004.05 1003.69 1003.28 1002.86 1002.46 1002.10 1001.80 1001.57 1001.38 1001.24 1001.10 1000.94
Thickness
5744 5751 5754 5750 5749 5750 5746 5745 5737 5736 5734 5736 5740 5740 5739 5739 5736 5734 5733 5732 5731 5729 5729 5729 5729 5729 5729 5729 5730 5729 5726 5723 5722 5722 5721 5719 5718 5717 5716 5714 5713 5712 5710 5709
5741 5750 5751 5746 5749 5750 5747 5747 5744 5739 5736 5748 5747 5744 5740 5737 5734 5730 5729 5729 5728 5728 5727 5727 5727 5726 5726 5726 5726 5725 5722 5719 5719 5717 5716 5714 5714 5713 5711 5710 5709 5707 5706 5704
5733 5747 5744 5732 5747 5748 5748 5751 5747 5735 5738 5746 5740 5738 5736 5735 5732 5729 5727 5727 5726 5726 5725 5725 5726 5725 5723 5723 5723 5721 5718 5715 5714 5713 5711 5710 5709 5707 5705 5705 5704 5702 5701 5700
5733 5733 5714 5738 5763 5760 5751 5750 5753 5748 5745 5744 5740 5739 5738 5736 5731 5727 5726 5724 5723 5723 5723 5724 5724 5723 5721 5720 5717 5715 5712 5710 5709 5707 5705 5704 5703 5701 5700 5700 5698 5697 5696 5696
5728 5722 5724 5738 5752 5753 5743 5737 5749 5744 5741 5740 5740 5733 5729 5733 5731 5727 5724 5723 5721 5721 5721 5720 5719 5719 5717 5714 5712 5708 5706 5704 5704 5702 5700 5698 5697 5695 5695 5693 5692 5692 5691 5690
5723 5715 5712 5732 5752 5760 5747 5725 5744 5744 5738 5735 5731 5714 5715 5727 5726 5723 5720 5719 5717 5716 5715 5713 5713 5712 5709 5706 5704 5700 5699 5699 5699 5697 5695 5693 5692 5691 5690 5688 5687 5686 5685 5684
5714 5714 5719 5737 5748 5749 5719 5721 5742 5742 5737 5732 5725 5722 5722 5723 5719 5717 5714 5712 5711 5709 5706 5705 5705 5704 5700 5698 5696 5695 5695 5693 5692 5691 5690 5689 5687 5685 5683 5682 5680 5679 5678 5678
5714 5707 5708 5735 5736 5729 5728 5740 5739 5735 5732 5727 5722 5721 5718 5714 5710 5708 5705 5704 5703 5700 5698 5697 5697 5695 5692 5689 5689 5689 5687 5686 5684 5684 5683 5683 5679 5677 5675 5673 5671 5669 5668 5668
5718 5711 5724 5733 5732 5734 5737 5731 5730 5727 5725 5720 5714 5710 5708 5705 5702 5700 5698 5696 5695 5692 5689 5689 5688 5686 5682 5682 5682 5680 5678 5677 5676 5676 5674 5673 5670 5667 5665 5663 5660 5658 5656 5654
5713 5713 5718 5723 5726 5727 5727 5724 5723 5721 5717 5712 5706 5703 5699 5696 5694 5691 5690 5688 5686 5683 5680 5678 5678 5677 5675 5674 5673 5671 5669 5667 5667 5666 5664 5662 5660 5657 5654 5651 5648 5646 5643 5641
5705 5707 5708 5710 5713 5715 5715 5714 5712 5710 5708 5703 5698 5694 5691 5688 5686 5683 5681 5679 5677 5674 5671 5669 5669 5667 5666 5665 5663 5660 5659 5657 5656 5654 5652 5650 5649 5646 5644 5642 5639 5635 5633 5630
5696 5704 5702 5700 5706 5707 5703 5701 5700 5697 5695 5694 5690 5686 5683 5679 5677 5674 5672 5670 5667 5664 5662 5661 5659 5657 5656 5654 5652 5648 5646 5644 5642 5641 5639 5637 5636 5635 5635 5632 5630 5627 5624 5620
5701 5704 5701 5699 5698 5697 5693 5692 5690 5688 5685 5682 5680 5678 5674 5670 5667 5665 5662 5660 5657 5654 5652 5651 5649 5646 5645 5643 5639 5636 5633 5631 5629 5627 5625 5623 5622 5620 5619 5620 5618 5615 5612 5609
5693 5691 5685 5685 5684 5684 5683 5682 5680 5677 5675 5672 5669 5666 5663 5659 5657 5653 5651 5649 5648 5645 5642 5640 5637 5635 5633 5631 5627 5624 5621 5619 5616 5613 5611 5609 5607 5606 5605 5604 5603 5602 5601 5597
5678 5677 5674 5675 5673 5672 5670 5668 5665 5662 5661 5658 5656 5653 5650 5646 5643 5641 5640 5639 5636 5634 5631 5629 5625 5623 5621 5618 5614 5611 5608 5605 5602 5600 5597 5595 5594 5593 5591 5590 5588 5587 5586 5584
5665 5664 5662 5660 5658 5658 5656 5654 5651 5648 5647 5644 5642 5639 5637 5635 5632 5630 5628 5626 5623 5620 5619 5616 5613 5611 5609 5605 5601 5598 5595 5592 5589 5586 5584 5581 5580 5578 5576 5575 5573 5571 5570 5568
5649 5647 5646 5645 5644 5644 5643 5641 5639 5636 5634 5631 5629 5627 5625 5622 5620 5617 5616 5614 5612 5610 5608 5604 5601 5599 5596 5591 5587 5584 5581 5578 5575 5572 5569 5567 5565 5563 5562 5560 5558 5557 5556 5554
5641 5639 5637 5635 5633 5630 5629 5628 5626 5624 5621 5619 5617 5615 5612 5609 5606 5604 5603 5602 5600 5597 5595 5592 5589 5585 5581 5578 5574 5570 5566 5563 5560 5557 5555 5553 5551 5549 5547 5545 5544 5542 5541 5541
5628 5626 5624 5623 5621 5618 5616 5614 5613 5611 5609 5607 5604 5601 5598 5596 5594 5592 5591 5588 5585 5582 5581 5579 5575 5571 5567 5564 5560 5556 5552 5549 5546 5544 5541 5540 5537 5536 5534 5532 5530 5529 5528 5527
5613 5612 5610 5608 5607 5605 5603 5601 5600 5597 5596 5593 5590 5588 5585 5583 5581 5579 5577 5574 5571 5569 5568 5565 5560 5556 5553 5550 5545 5541 5538 5535 5532 5530 5528 5526 5524 5522 5520 5518 5517 5515 5514 5513
5597 5596 5595 5593 5592 5590 5589 5587 5585 5583 5582 5580 5576 5574 5572 5570 5568 5565 5562 5559 5559 5557 5554 5550 5546 5542 5539 5535 5531 5527 5524 5521 5519 5517 5515 5513 5511 5508 5506 5505 5503 5502 5501 5500
5582 5581 5579 5578 5576 5575 5574 5573 5572 5569 5567 5565 5562 5560 5558 5555 5553 5551 5549 5546 5545 5542 5539 5535 5532 5528 5524 5520 5516 5513 5511 5509 5507 5505 5503 5500 5497 5495 5493 5492 5490 5489 5488 5487
5567 5566 5565 5564 5562 5561 5560 5559 5557 5555 5553 5550 5548 5546 5544 5541 5539 5536 5534 5534 5531 5528 5524 5521 5518 5515 5511 5507 5504 5501 5499 5498 5496 5494 5491 5488 5485 5482 5481 5480 5478 5477 5476 5476
5551 5551 5550 5550 5549 5547 5545 5544 5543 5541 5539 5537 5535 5533 5530 5528 5526 5525 5522 5521 5518 5514 5510 5507 5504 5501 5498 5495 5492 5490 5488 5487 5484 5482 5479 5476 5473 5471 5469 5467 5466 5466 5466 5466
5536 5535 5535 5534 5532 5531 5531 5530 5528 5526 5524 5522 5521 5520 5518 5515 5513 5511 5509 5506 5504 5500 5497 5495 5492 5489 5485 5482 5481 5479 5477 5474 5472 5469 5466 5464 5462 5460 5458 5457 5456 5456 5456 5456
5521 5520 5520 5520 5519 5517 5516 5514 5513 5511 5509 5507 5506 5505 5503 5502 5499 5497 5494 5492 5490 5487 5484 5481 5479 5476 5473 5471 5469 5467 5464 5462 5460 5457 5455 5454 5452 5450 5449 5449 5449 5448 5449 5449
5507 5507 5506 5505 5505 5504 5502 5500 5498 5496 5494 5492 5490 5489 5487 5485 5484 5482 5480 5477 5475 5473 5471 5469 5467 5464 5461 5459 5457 5455 5453 5450 5448 5446 5445 5443 5442 5441 5441 5441 5441 5441 5442 5442